This is the latest recevied weather packets stored in our database for station/object K7CTM. If no packets are shown the sender has not sent any weather packets the latest 10 day(s).
| Time | Temp. | Humidity | Pressure | Rain* | Wind** | Luminosity | Snow |
|---|---|---|---|---|---|---|---|
| 1787869396 | 24.44° C | 45% | 1026.3 hPa | 0 mm | - | 327 W/m² | - |
| 1787869091 | 23.89° C | 44% | 1026.1 hPa | 0 mm | - | 274 W/m² | - |
| 1787868789 | 23.89° C | 47% | 1026.3 hPa | 0 mm | - | 102 W/m² | - |
| 1787868489 | 23.89° C | 45% | 1026.8 hPa | 0 mm | - | 34 W/m² | - |
| 1787868188 | 25° C | 40% | 1027 hPa | 0 mm | - | 22 W/m² | - |
| 1787867883 | 25° C | 43% | 1027.2 hPa | 0 mm | - | 19 W/m² | - |
| 1787867579 | 25° C | 39% | 1027 hPa | 0 mm | - | 22 W/m² | - |
| 1787867278 | 25° C | 41% | 1027 hPa | 0 mm | - | 33 W/m² | - |
| 1787866975 | 25° C | 33% | 1026.9 hPa | 0 mm | - | 29 W/m² | - |
| 1787866669 | 25.56° C | 40% | 1026.6 hPa | 0 mm | - | 25 W/m² | - |
| 1787866368 | 26.11° C | 34% | 1026.9 hPa | 0 mm | - | 24 W/m² | - |
| 1787866063 | 25.56° C | 40% | 1026.5 hPa | 0 mm | - | 24 W/m² | - |
| 1787865758 | 27.22° C | 39% | 1026.3 hPa | 0 mm | - | 19 W/m² | - |
| 1787865453 | 30° C | 30% | 1026.4 hPa | 0 mm | - | 15 W/m² | - |
| 1787865148 | 31.11° C | 25% | 1026 hPa | 0 mm | - | 16 W/m² | - |
| 1787864847 | 30.56° C | 30% | 1025.5 hPa | 0 mm | - | 22 W/m² | - |
| 1787864544 | 31.67° C | 26% | 1025.6 hPa | 0 mm | - | 31 W/m² | - |
| 1787864239 | 31.67° C | 24% | 1025.5 hPa | 0 mm | - | 37 W/m² | - |
| 1787863934 | 32.22° C | 24% | 1025.5 hPa | 0 mm | - | 47 W/m² | - |
| 1787863632 | 32.22° C | 24% | 1025.8 hPa | 0 mm | - | 68 W/m² | - |
| 1787863331 | 32.78° C | 23% | 1026 hPa | 0 mm | - | 109 W/m² | - |
| 1787863027 | 32.22° C | 23% | 1026 hPa | 0 mm | - | 186 W/m² | - |
| 1787862722 | 32.78° C | 23% | 1026.2 hPa | 0 mm | - | 244 W/m² | - |
| 1787862418 | 32.78° C | 23% | 1026.2 hPa | 0 mm | - | 288 W/m² | - |
| 1787862113 | 32.78° C | 22% | 1026.4 hPa | 0 mm | - | 382 W/m² | - |
* Rain latest hour (hover to see other rain measurements)
** Current wind speed in m/s (hover to see current wind gust speed)